Location: Cornospital
(48.0620°N, 3.3837°W)
Time: 14:59:35
(UTC+00:00)

Cosmos 1606 Rocket - Pass Details

Date: 17 June 2021
Orbit: 602 x 633 km, 82.5° (Epoch: 30 July)

Event Time Altitude Azimuth Distance (km) Brightness Sun altitude
Rises 22:20:15 0° 356° (N) 2,940 8.4 -14.1°
Reaches altitude 10° 22:22:38 10° 4° (N) 2,025 7.2 -14.2°
Maximum altitude 22:26:52 40° 74° (ENE) 929 4.4 -14.6°
Enters shadow 22:29:15 22° 131° (SE) 1,369 4.8 -14.7°
